Regional Weather Roundup
Issued by NWS

Home | Current Version | Previous Version | Graphics & Text | Print | Product List | Glossary On
Versions: 1 2 3 4 5 6 7 8 9 10 11 12 13 14 15 16 17 18 19 20 21 22 23 24 25 26 27 28 29 30 31 32 33 34 35 36 37 38 39 40 41 42 43 44 45 46 47 48 49 50
000
ASUS43 KOAX 240502
RWRNE

WEATHER ROUNDUP FOR NEBRASKA
NATIONAL WEATHER SERVICE OMAHA NE
1100 PM CST MON JAN 23 2017

NOTES: SATELLITE DATA IS BEING USED TO AUGMENT CLOUD COVER ABOVE
       12000 FEET.
       "FAIR" INDICATES FEW OR NO CLOUDS BELOW 12,000 FEET WITH NO
       SIGNIFICANT WEATHER AND/OR OBSTRUCTIONS TO VISIBILITY.

  * THESE STATIONS DO NOT REPORT WEATHER SUCH AS RAIN...SNOW OR FOG.

NEZ001>004-019>022-054>056-240600-
NEBRASKA PANHANDLE

CITY           SKY/WX    TMP DP  RH WIND       PRES   REMARKS
SCOTTSBLUFF    CLOUDY    30  26  85 NE18G25   29.55F WCI  18
ALLIANCE       CLOUDY    27  26  96 NE14      29.59F FOG     WCI  16
CHADRON        FOG       24  23  96 NE12      29.68S VSB 3/4 WCI  13
KIMBALL        CLOUDY    35  31  85 SE7       29.53S WCI  29
SIDNEY         CLOUDY    36  31  82 NE10      29.55F WCI  28
$$

NEZ057>060-069>072-079>082-240600-
SOUTHWEST NEBRASKA

CITY           SKY/WX    TMP DP  RH WIND       PRES   REMARKS
NORTH PLATTE   PTCLDY    31  29  92 E7        29.62S WCI  24
IMPERIAL       CLEAR     32  27  81 NE5       29.55F WCI  27
LEXINGTON      CLOUDY    32  32  97 E9        29.64F FOG     WCI  25
MCCOOK         CLEAR     34  30  85 E9        29.56F WCI  27
OGALLALA       CLOUDY    38  31  76 E5        29.57F WCI  34
$$

NEZ005>010-023>029-035>040-094-240600-
NORTH CENTRAL NEBRASKA

CITY           SKY/WX    TMP DP  RH WIND       PRES   REMARKS
VALENTINE      FOG       30  28  92 SE10      29.67S VSB 3/4 WCI  21
AINSWORTH      FOG       32  32 100 SE12      29.68S VSB 3/4 WCI  23
BROKEN BOW     FOG       32  31  96 E13       29.67S VSB 1/4 WCI  22
O`NEILL        CLOUDY    32  32  99 SE9       29.73S FOG     WCI  24
ORD            CLOUDY    32  29  88 E9        29.71S FOG     WCI  24
THEDFORD       FOG       32  32  99 E7        29.66S VSB 1/2 WCI  26
$$

NEZ041-046>049-061>064-073>077-083>087-240600-
SOUTH CENTRAL NEBRASKA

CITY           SKY/WX    TMP DP  RH WIND       PRES   REMARKS
GRAND ISLAND   CLOUDY    32  32 100 E13       29.72F FOG     WCI  22
AURORA         CLOUDY    32  32 100 E13G18    29.72F FOG     WCI  22
HASTINGS       FOG       32  31  96 E13       29.70S VSB 1/2 WCI  22
HEBRON         MOCLDY    31  31 100 E6        29.73S FOG     WCI  25
HOLDREGE       PTCLDY    32  30  94 E13       29.63R FOG     WCI  22
KEARNEY *      CLOUDY    32  30  93 E12       29.67F VSB 1/2 WCI  23
YORK           PTCLDY    32  32 100 SE14      29.75S FOG     WCI  22
$$

NEZ011>018-030>034-042>045-240600-
NORTHEAST NEBRASKA

CITY           SKY/WX    TMP DP  RH WIND       PRES   REMARKS
NORFOLK        CLOUDY    30  27  88 SE10      29.77S FOG     WCI  21
ALBION         CLOUDY    32  29  90 SE14      29.76S FOG     WCI  22
BLAIR          CLOUDY    31  30  93 SE7       29.82S FOG     WCI  25
FREMONT        CLOUDY    31  30  95 E6        29.83S WCI  26
TEKAMAH        CLOUDY    32  28  85 SE10      29.84S WCI  24
WAYNE          CLOUDY    32  30  94 SE8       29.80F WCI  24
$$

NEZ050>053-065>068-078-088>093-240600-
SOUTHEAST NEBRASKA

CITY           SKY/WX    TMP DP  RH WIND       PRES   REMARKS
LINCOLN        CLOUDY    32  29  88 E9        29.81S WCI  24
OMAHA EPPLEY   CLOUDY    32  27  81 SE9       29.85R WCI  24
BEATRICE       CLEAR     32  31  96 E8        29.76F FOG     WCI  25
FALLS CITY     CLEAR     30  28  92 E8        29.81F WCI  22
NEBRASKA CITY  PTCLDY    30  30 100 E7        29.81F WCI  23
PLATTSMOUTH    CLEAR     30  27  88 E7        29.82S WCI  23
$$

NEZ044-045-051>053-067-240600-
OMAHA AREA

CITY           SKY/WX    TMP DP  RH WIND       PRES   REMARKS
OMAHA EPPLEY   CLOUDY    32  27  81 SE9       29.85R WCI  24
BLAIR          CLOUDY    31  30  93 SE7       29.82S FOG     WCI  25
FREMONT        CLOUDY    31  30  95 E6        29.83S WCI  26
MILLARD        CLOUDY    33  30  91 E5        29.84R WCI  28
OFFUTT AFB     CLEAR     28  28 100 E5        29.83S WCI  23
PLATTSMOUTH    CLEAR     30  27  88 E7        29.82S WCI  23
WAHOO          FAIR      30  29  94 E6        29.81F WCI  24
$$




USA.gov is the U.S. government's official web portal to all federal, state and local government web resources and services.